Date,TemperatureHighF,TemperatureAvgF,TemperatureLowF,DewpointHighF,DewpointAvgF,DewpointLowF,HumidityHigh,HumidityAvg,HumidityLow,PressureMaxIn,PressureMinIn,WindSpeedMaxMPH,WindSpeedAvgMPH,GustSpeedMaxMPH,PrecipitationSumIn
2013-1-1,10.3,0.1,-11.6,7.0,-3.7,-15.5,90,83,70,30.66,30.23,17,2,20,0.00
2013-1-2,18.3,14.8,7.9,16.6,12.8,5.1,93,92,88,30.23,30.08,13,2,13,0.00
2013-1-3,18.2,12.8,4.4,15.1,8.5,1.6,99,83,66,30.33,29.92,31,6,31,0.00
2013-1-4,21.8,17.6,12.0,19.6,14.1,9.6,92,86,83,30.26,29.89,20,5,25,0.00
2013-1-5,26.0,18.2,5.0,21.9,15.6,1.7,93,89,80,30.35,29.99,12,2,14,0.00
2013-1-6,19.7,15.7,11.6,16.2,11.8,7.6,93,84,67,30.34,29.99,20,3,20,0.00
2013-1-7,32.0,24.8,17.7,25.2,20.2,14.5,94,82,74,30.04,29.53,24,7,31,0.00
2013-1-8,31.9,27.7,23.2,28.2,23.2,19.4,94,83,72,29.99,29.51,17,2,19,0.02
2013-1-9,28.1,24.2,20.6,26.0,20.9,17.3,93,87,83,30.46,29.51,28,7,29,0.00
2013-1-10,39.7,31.2,19.8,26.0,20.5,14.8,91,66,41,30.41,29.62,25,6,25,0.01
2013-1-11,34.6,32.7,30.6,33.4,31.5,25.2,97,95,73,29.63,29.17,13,2,17,0.21
2013-1-12,36.2,19.4,4.5,35.4,16.6,0.0,97,88,78,30.19,29.02,21,5,26,0.03
2013-1-13,4.5,0.8,-2.1,0.6,-2.6,-5.3,87,85,83,30.51,30.17,17,4,17,0.00
2013-1-14,1.7,-1.5,-4.3,-2.0,-5.3,-8.1,86,83,76,30.73,30.50,15,3,15,0.00
2013-1-15,18.8,10.9,1.8,10.1,4.3,-1.9,86,75,57,30.62,29.68,16,4,22,0.00
2013-1-16,20.0,8.8,-12.7,18.2,3.1,-17.4,93,77,57,30.56,29.43,25,7,25,0.02
2013-1-17,-2.3,-10.8,-22.6,-11.4,-17.2,-27.7,92,73,60,30.95,30.56,20,3,21,0.00
2013-1-18,13.6,2.2,-20.7,10.5,-1.3,-26.0,88,84,75,30.87,29.95,10,1,12,0.08
2013-1-19,23.5,8.1,-10.3,21.9,5.3,-14.4,94,88,82,30.32,29.52,23,6,26,0.10
2013-1-20,-4.3,-11.7,-16.6,-8.4,-15.8,-21.0,94,81,80,30.81,30.32,19,4,20,0.00
2013-1-21,-14.5,-21.2,-24.9,-18.6,-26.0,-30.0,92,78,76,30.93,30.61,17,4,20,0.00
2013-1-22,-10.7,-17.7,-26.5,-15.1,-22.3,-31.5,81,79,76,31.03,30.74,14,2,16,0.00
2013-1-23,-5.9,-11.9,-20.0,-8.2,-16.1,-24.8,92,81,78,31.25,30.59,20,4,20,0.00
2013-1-24,5.0,-11.7,-35.1,1.6,-16.3,-40.6,86,79,73,31.54,30.52,15,2,15,0.00
2013-1-25,8.9,5.7,1.1,5.0,2.4,-2.2,88,86,81,30.57,30.16,15,3,15,0.06
2013-1-26,17.7,4.6,-16.0,15.3,1.4,-20.6,91,86,79,30.85,30.32,17,2,21,0.00
2013-1-27,28.1,20.8,12.2,24.3,17.4,9.4,92,87,78,30.35,29.88,14,2,17,0.00
2013-1-28,29.9,27.4,25.8,27.9,26.0,24.3,96,94,91,29.88,29.67,16,2,16,0.00
2013-1-29,29.2,25.9,18.7,28.2,24.3,16.3,96,93,87,29.71,29.41,20,3,20,0.05
2013-1-30,18.7,7.1,-0.8,16.3,3.7,-4.6,93,86,81,29.90,29.64,22,7,22,0.00
2013-1-31,-0.4,-3.8,-10.6,-4.3,-8.1,-14.7,85,81,75,30.50,29.89,22,7,22,0.00
2013-2-1,-7.3,-15.8,-25.2,-14.2,-20.8,-30.6,92,78,70,30.80,30.50,13,2,15,0.00
2013-2-2,6.9,-11.1,-31.6,-4.0,-17.8,-37.2,88,72,55,30.93,30.22,10,1,12,0.00
2013-2-3,-0.1,-5.1,-12.5,-1.9,-10.0,-16.8,92,79,69,30.48,30.14,19,4,20,0.00
2013-2-4,3.7,-8.6,-29.9,-1.0,-14.7,-35.4,84,74,61,30.69,30.01,13,2,15,0.00
2013-2-5,9.9,2.8,-16.6,4.9,-2.3,-21.6,87,79,66,30.51,29.85,17,2,18,0.04
2013-2-6,14.8,5.2,-16.6,10.6,0.6,-21.6,96,81,65,30.57,30.37,11,1,11,0.01
2013-2-7,15.6,5.8,-6.5,10.5,2.0,-11.5,87,84,79,30.77,30.46,9,1,10,0.00
2013-2-8,23.3,5.3,-13.6,13.4,-0.1,-18.5,90,79,60,30.99,30.42,15,2,17,0.00
2013-2-9,23.2,20.3,14.3,21.3,17.2,11.7,94,88,80,30.42,30.05,21,3,26,0.00
2013-2-10,25.4,23.7,22.8,24.2,22.2,21.1,95,94,93,30.06,29.36,19,4,21,0.35
2013-2-11,24.0,17.0,13.8,22.8,15.0,11.1,95,91,89,30.03,29.33,20,6,22,0.00
2013-2-12,26.0,17.9,11.3,23.3,15.6,8.9,100,91,89,30.03,29.66,14,2,15,0.00
2013-2-13,22.5,20.2,16.6,20.7,18.4,14.7,94,93,92,29.68,29.61,12,2,12,0.00
2013-2-14,22.4,10.9,4.5,20.4,6.1,-0.1,93,81,74,30.36,29.67,20,5,20,0.00
2013-2-15,7.2,1.4,-16.2,1.1,-2.8,-21.1,87,82,73,30.67,30.32,16,3,17,0.00
2013-2-16,8.8,-9.8,-26.1,-0.5,-15.7,-31.6,87,75,64,30.86,30.58,9,1,11,0.00
2013-2-17,20.6,10.3,-14.4,17.5,6.5,-18.6,90,85,73,30.58,29.76,26,5,26,0.01
2013-2-18,24.6,19.7,2.8,22.3,17.1,-0.9,94,90,86,29.81,29.48,20,4,24,0.02
2013-2-19,2.6,-2.6,-7.7,-1.1,-6.7,-11.8,85,82,79,30.83,29.81,27,10,29,0.00
2013-2-20,10.1,-3.8,-15.2,-6.4,-12.7,-20.3,83,66,44,31.12,30.81,18,4,21,0.00
2013-2-21,22.4,2.9,-23.2,9.6,-4.8,-28.6,86,70,55,31.22,30.46,13,2,14,0.00
2013-2-22,22.0,17.9,12.8,20.3,16.0,8.9,93,92,83,30.46,29.94,14,3,15,0.00
2013-2-23,26.5,17.8,4.5,20.7,14.5,0.8,100,87,77,30.11,29.83,10,1,11,0.01
2013-2-24,34.2,19.4,-1.3,24.8,14.2,-5.6,93,81,62,30.27,30.05,10,1,12,0.00
2013-2-25,38.9,22.3,5.5,24.7,16.4,1.7,93,79,54,30.27,29.98,12,1,13,0.00
2013-2-26,40.6,21.9,2.9,24.9,14.9,-1.1,95,76,45,30.29,30.02,10,1,12,0.00
2013-2-27,27.2,19.7,6.3,22.5,16.3,2.8,93,86,76,30.21,30.00,24,4,24,0.00
2013-2-28,24.8,18.3,8.1,17.2,9.7,-0.2,88,70,53,30.60,30.18,19,4,23,0.00
2013-3-1,21.6,9.9,-0.9,-0.1,-7.0,-14.1,73,48,30,30.83,30.59,14,2,14,0.00
2013-3-2,22.5,5.0,-18.7,-6.9,-13.4,-24.6,75,46,21,30.85,30.51,11,1,12,0.00
2013-3-3,28.2,9.1,-15.0,2.3,-9.6,-20.6,78,48,18,30.66,30.27,11,1,13,0.00
2013-3-4,28.2,16.2,-1.0,14.1,5.7,-8.4,81,64,38,30.41,30.26,16,3,21,0.00
2013-3-5,21.2,15.9,11.8,11.1,7.9,4.0,81,71,57,30.52,30.28,15,3,16,0.00
2013-3-6,19.7,14.9,9.5,12.4,9.7,4.3,88,80,66,30.58,30.47,16,4,17,0.04
2013-3-7,30.8,17.2,3.2,14.6,9.3,-0.5,92,72,48,30.72,30.49,12,2,15,0.00
2013-3-8,30.4,24.9,15.9,24.0,20.3,13.7,92,83,69,30.51,30.21,13,2,17,0.00
2013-3-9,32.2,27.2,20.9,28.8,25.0,19.0,95,91,86,30.21,29.67,18,2,19,0.14
2013-3-10,29.0,25.2,19.6,27.8,22.2,15.9,95,88,80,30.12,29.67,18,5,22,0.00
2013-3-11,20.3,16.3,12.8,16.2,12.4,9.0,91,85,76,30.08,29.81,15,4,18,0.00
2013-3-12,16.9,12.1,8.2,14.0,8.4,4.6,95,85,77,30.36,29.85,17,5,22,0.03
2013-3-13,26.9,13.6,1.2,14.7,5.3,-3.2,84,70,55,30.56,30.35,16,3,17,0.00
2013-3-14,36.4,19.5,-6.6,28.6,13.1,-11.1,93,77,47,30.53,29.93,21,4,21,0.00
2013-3-15,24.8,12.7,7.3,21.3,0.6,-9.5,87,60,36,30.31,29.94,17,4,22,0.00
2013-3-16,13.6,3.9,-8.9,1.8,-4.0,-13.7,82,70,54,30.57,30.24,24,4,24,0.00
2013-3-17,17.5,3.5,-21.8,12.9,-5.7,-27.2,86,67,36,30.84,30.06,16,3,20,0.00
2013-3-18,25.2,21.8,17.1,20.8,17.2,9.9,94,82,64,30.06,29.41,25,5,25,0.06
2013-3-19,21.6,14.4,9.8,19.5,10.9,6.0,93,86,78,30.09,29.41,24,8,26,0.02
2013-3-20,14.4,9.5,4.8,8.9,4.0,0.6,95,78,66,30.35,30.08,20,7,24,0.00
2013-3-21,24.8,10.0,0.0,11.6,4.6,-1.1,92,55,48,30.31,29.95,14,3,16,0.00
2013-3-22,25.4,14.5,1.1,17.4,10.6,-3.6,92,84,72,30.04,29.96,11,2,11,0.00
2013-3-23,30.7,22.5,8.9,19.2,16.0,5.1,91,76,61,30.12,30.02,11,1,11,0.00
2013-3-24,31.2,24.4,20.8,19.5,15.6,9.9,86,70,52,30.07,29.94,12,2,13,0.00
2013-3-25,32.3,25.2,16.4,21.5,17.7,8.9,88,73,62,30.10,29.99,15,4,15,0.00
2013-3-26,33.7,29.1,23.9,24.5,21.0,17.9,88,72,56,30.16,30.09,11,2,11,0.00
2013-3-27,35.9,29.4,16.3,22.1,18.7,11.8,83,65,49,30.23,30.16,12,2,14,0.00
2013-3-28,42.4,27.1,10.7,18.9,14.5,7.1,87,62,35,30.27,30.17,14,1,15,0.00
2013-3-29,18.7,13.0,9.5,13.5,9.0,5.3,86,84,80,30.22,30.18,1,0,1,0.00
2013-4-3,33.2,31.2,29.6,24.1,18.7,13.3,69,60,49,29.94,29.81,20,6,26,0.00
2013-4-4,35.2,31.5,22.0,29.2,20.5,10.6,86,65,46,30.06,29.76,23,6,24,0.00
2013-4-5,34.8,23.1,5.1,17.2,10.3,1.1,85,59,38,30.21,29.98,12,2,12,0.00
2013-4-6,29.9,27.4,23.9,28.0,24.0,7.2,95,88,46,29.98,29.55,18,3,19,0.23
2013-4-7,36.7,31.1,26.9,30.4,27.0,25.4,94,85,67,29.81,29.57,12,2,13,0.03
2013-4-8,36.4,31.8,27.7,32.6,29.6,25.7,94,91,85,29.94,29.75,7,1,10,0.07
2013-4-9,36.2,31.4,25.8,30.9,22.3,14.9,95,71,42,30.15,29.93,18,4,18,0.00
2013-4-10,42.8,29.8,15.4,18.4,13.4,9.0,84,53,30,30.19,30.06,14,2,14,0.00
2013-4-11,27.2,23.6,19.7,18.5,14.3,10.8,77,67,56,30.10,29.85,23,6,25,0.00
2013-4-12,26.6,21.8,19.5,21.7,18.2,15.7,92,86,64,29.85,29.72,15,4,19,0.14
2013-4-13,30.7,23.0,12.1,25.4,19.5,8.9,93,87,73,29.90,29.72,13,2,14,0.00
2013-4-14,36.8,23.3,1.8,26.1,17.3,-2.2,95,78,58,29.96,29.68,19,4,20,0.03
2013-4-15,33.7,30.4,26.5,31.1,28.3,24.5,95,92,84,29.68,29.46,20,4,25,0.04
2013-4-16,33.1,30.3,27.2,29.6,26.6,24.8,100,86,77,30.31,29.66,15,4,15,0.00
2013-4-17,30.6,28.4,23.2,26.0,24.2,20.7,90,84,80,30.35,30.03,11,2,12,0.02
2013-4-18,31.4,26.8,23.2,29.4,25.2,20.7,95,93,90,30.04,29.42,24,4,28,0.39
2013-4-19,24.8,19.4,13.8,23.3,17.1,9.2,94,91,83,29.86,29.34,29,10,33,0.08
2013-4-20,30.7,17.9,7.1,17.7,9.4,2.5,92,70,48,30.21,28.16,13,3,14,0.00
2013-4-21,35.7,27.3,16.8,30.2,22.5,10.5,96,82,62,28.22,27.95,21,5,23,0.13
2013-4-22,34.4,31.4,28.7,31.0,26.7,24.3,96,83,71,28.14,27.95,15,4,15,0.01
2013-4-23,38.2,29.8,23.2,25.5,20.4,14.4,93,71,39,28.08,27.88,18,4,18,0.05
2013-4-24,41.1,28.4,8.5,23.8,16.9,4.7,87,64,41,27.88,27.76,15,2,15,0.00
2013-4-25,42.7,32.4,21.8,26.5,23.4,19.6,94,71,40,28.02,27.81,13,2,13,0.00
2013-4-26,59.9,44.0,30.2,36.9,30.7,20.2,81,61,40,28.06,27.93,18,3,18,0.00
2013-4-27,64.9,51.1,30.1,35.5,31.9,26.2,92,52,31,28.05,27.82,16,2,19,0.00
2013-4-28,59.0,50.7,37.5,46.9,41.8,35.1,94,72,55,27.82,27.66,19,3,19,0.00
2013-4-29,62.7,47.1,28.8,43.0,34.0,27.0,96,65,31,27.78,27.65,12,1,12,0.00
2013-4-30,63.6,52.7,45.9,52.9,42.4,27.4,98,72,34,27.79,27.37,23,5,27,0.08
2013-5-1,47.8,34.8,28.7,35.0,26.7,22.0,82,72,60,28.39,27.78,23,6,23,0.00
2013-5-2,35.7,29.7,26.0,23.0,20.5,18.4,77,68,56,28.45,28.36,16,5,16,0.00
2013-5-3,30.5,27.3,24.5,27.5,23.0,19.2,94,84,73,28.37,28.16,15,4,15,0.07
2013-5-4,34.4,30.5,26.4,33.2,29.2,24.6,96,95,93,28.18,28.13,8,2,8,0.08
2013-5-5,51.4,38.8,31.2,43.6,36.1,30.3,97,90,74,28.17,28.07,9,1,9,0.00
2013-5-6,67.2,50.5,31.7,49.9,42.2,29.9,95,75,52,28.07,28.00,13,2,13,0.00
2013-5-7,71.7,55.7,33.5,49.2,42.0,30.6,91,63,42,28.04,27.95,14,2,15,0.00
2013-5-8,72.9,59.4,45.1,53.2,45.1,38.8,96,62,37,28.04,27.94,13,1,13,0.21
2013-5-9,53.8,42.9,32.4,42.4,30.2,17.7,95,65,33,28.17,28.03,15,3,17,0.00
2013-5-10,52.7,38.4,26.4,26.9,18.8,8.3,85,48,27,28.17,27.82,11,2,13,0.00
2013-5-11,37.1,32.2,29.9,34.0,28.2,21.7,94,85,64,28.00,27.81,27,8,29,0.10
2013-5-12,41.4,32.3,24.1,25.3,20.7,18.2,89,64,42,28.04,28.00,21,5,21,0.01
2013-5-13,50.5,37.6,19.8,28.3,22.4,17.8,94,57,33,28.03,27.69,17,2,17,0.00
2013-5-14,64.3,52.1,35.0,46.0,38.1,27.8,78,59,45,27.70,27.38,19,2,21,0.00
2013-5-15,70.3,58.3,47.9,46.6,41.7,37.2,81,56,32,27.81,27.48,24,7,29,0.01
2013-5-16,67.0,50.7,31.0,38.3,34.3,29.0,95,57,29,28.03,27.80,13,2,13,0.00
2013-5-17,64.5,51.9,43.4,39.9,36.6,34.1,76,57,38,28.11,28.03,13,3,14,0.00
2013-5-18,53.2,49.7,46.6,52.4,46.0,35.1,98,88,64,28.05,27.86,13,2,13,0.10
2013-5-19,56.9,51.3,47.9,55.8,50.4,47.1,98,96,94,27.89,27.83,22,3,26,0.38
2013-5-20,50.4,47.0,43.9,49.6,46.0,43.0,97,96,95,27.86,27.69,28,9,31,0.75
2013-5-21,43.8,41.9,40.9,43.0,41.1,40.1,98,97,97,27.83,27.72,21,5,21,0.47
2013-5-22,62.6,49.8,41.5,43.0,38.8,30.6,98,70,31,28.07,27.81,20,4,20,0.04
2013-5-23,55.0,42.8,31.5,34.1,28.8,25.9,81,59,38,28.28,28.07,16,4,16,0.00
2013-5-24,62.9,49.7,35.0,36.9,31.0,26.3,72,50,31,28.33,28.21,13,2,13,0.00
2013-5-25,62.6,52.2,40.7,37.0,33.2,28.0,72,49,35,28.29,28.24,14,2,14,0.00
2013-5-26,65.9,53.2,38.8,42.5,33.3,27.6,67,47,33,28.28,28.15,15,2,15,0.00
2013-5-27,66.0,55.5,41.9,43.3,36.5,27.2,68,49,39,28.15,27.92,17,3,17,0.00
2013-5-28,67.0,54.7,36.7,44.5,38.9,33.8,94,58,36,27.92,27.72,16,2,19,0.00
2013-5-29,75.6,62.4,45.6,58.0,51.5,40.0,88,69,51,27.80,27.73,13,2,15,0.05
2013-5-30,71.0,63.6,58.5,66.5,61.9,57.6,98,95,83,27.75,27.63,14,3,17,0.40
2013-5-31,75.0,62.8,53.8,61.7,57.5,50.6,98,84,54,27.65,27.58,25,3,25,0.03
2013-6-1,54.7,45.5,38.5,51.8,44.1,36.9,97,95,87,27.89,27.61,22,4,24,0.13
2013-6-2,54.6,43.3,34.4,37.7,34.8,32.6,100,74,45,28.00,27.89,21,5,21,0.01
2013-6-3,62.7,46.5,30.3,41.5,32.6,29.2,97,65,31,28.09,28.00,13,2,13,0.00
2013-6-4,62.0,49.2,32.7,44.1,33.6,27.8,100,61,30,28.16,28.09,12,1,12,0.00
2013-6-5,58.9,51.2,39.2,45.2,37.2,30.0,90,60,44,28.13,28.06,15,3,17,0.00
2013-6-6,58.1,49.4,39.1,44.5,41.7,36.2,94,76,55,28.08,28.03,11,1,11,0.00
2013-6-7,69.8,53.0,33.0,48.7,38.1,32.0,100,64,30,28.03,27.94,13,1,13,0.00
2013-6-8,72.5,56.7,35.5,52.9,40.9,32.3,98,62,25,27.99,27.93,13,1,14,0.00
2013-6-9,67.0,56.5,44.1,52.2,46.5,36.4,92,71,45,28.01,27.88,16,2,19,0.12
2013-6-10,66.0,58.7,52.2,59.7,55.5,50.4,97,90,74,27.88,27.81,11,2,12,0.08
2013-6-11,71.9,61.7,49.7,57.6,52.5,47.8,97,75,45,27.89,27.80,13,2,14,0.11
2013-6-12,72.7,61.2,45.0,53.6,49.3,44.2,98,68,42,27.95,27.86,15,2,15,0.00
2013-6-13,73.8,60.7,47.7,51.4,46.4,42.0,85,62,35,28.14,27.95,14,2,14,0.00
2013-6-14,73.1,58.2,39.0,47.4,42.7,37.1,97,60,36,28.14,27.95,11,1,11,0.00
2013-6-15,70.8,60.5,51.3,61.1,51.8,34.5,87,74,44,27.95,27.78,12,1,12,0.00
2013-6-16,73.0,60.6,53.5,57.6,52.6,49.0,97,77,45,27.88,27.75,18,2,18,0.31
2013-6-17,67.3,53.1,43.8,53.4,44.4,35.6,97,75,43,28.07,27.87,11,1,11,0.05
2013-6-18,69.3,55.2,36.7,50.0,41.3,33.2,97,63,40,28.14,28.04,13,1,14,0.00
2013-6-19,74.7,61.9,47.5,59.3,49.1,32.8,92,64,44,28.04,27.95,12,1,12,0.01
2013-6-20,70.8,63.0,58.3,63.5,59.3,57.2,96,88,73,28.08,28.00,13,1,13,0.01
2013-6-21,63.6,58.9,56.5,60.1,57.4,55.4,98,95,87,28.08,27.90,15,2,15,0.01
2013-6-22,63.0,59.2,56.5,60.1,57.9,55.4,98,95,89,28.10,27.94,15,2,15,0.07
2013-6-23,72.1,63.5,56.6,66.8,61.6,56.0,99,94,81,27.94,27.72,14,2,16,0.05
2013-6-24,82.5,70.3,57.6,59.7,55.0,48.3,93,63,33,27.88,27.79,16,2,18,0.00
2013-6-25,85.0,72.2,57.0,64.8,59.0,53.5,92,66,44,27.84,27.78,9,1,11,0.00
2013-6-26,77.8,66.3,57.9,68.9,61.4,54.1,100,85,68,27.80,27.71,18,1,18,0.82
2013-6-27,80.0,66.9,59.6,64.5,61.0,58.5,98,83,50,27.77,27.68,16,1,16,0.09
2013-6-28,69.8,62.2,58.1,65.1,60.4,56.2,98,94,78,27.84,27.67,9,1,10,0.53
2013-6-29,71.5,61.5,49.3,56.4,51.4,47.2,96,72,45,28.00,27.83,12,2,12,0.00
2013-6-30,78.8,63.9,45.5,59.5,52.0,44.7,98,70,40,28.14,28.00,11,1,12,0.00
2013-7-1,77.8,62.6,48.7,54.3,49.8,39.1,97,66,38,28.24,28.14,8,1,10,0.00
2013-7-2,78.8,61.2,40.1,51.3,43.5,35.8,97,57,28,28.20,28.09,8,0,10,0.00
2013-7-3,83.0,65.2,46.0,57.3,49.5,38.2,97,60,35,28.09,27.97,10,1,11,0.00
2013-7-4,81.4,69.5,58.4,63.2,53.3,35.7,94,59,35,27.97,27.88,14,2,15,0.23
2013-7-5,82.0,73.6,62.4,65.1,61.5,58.4,90,67,50,27.89,27.81,16,3,18,0.00
2013-7-6,84.4,70.5,64.0,69.7,65.0,61.1,98,84,56,27.93,27.83,14,1,14,1.42
2013-7-7,68.1,64.3,57.8,65.8,63.0,56.1,99,95,90,27.99,27.89,8,1,9,0.07
2013-7-8,78.6,64.7,55.6,66.1,60.5,54.8,98,88,60,28.03,27.97,6,1,7,0.01
2013-7-9,72.2,65.6,57.9,67.7,62.5,55.8,97,90,79,28.00,27.77,16,1,16,0.20
2013-7-11,78.7,72.2,61.7,59.5,56.7,52.6,80,59,45,28.09,27.98,12,2,12,0.00
2013-7-12,78.9,70.6,59.4,65.8,60.9,53.8,85,72,60,28.00,27.91,22,2,22,0.00
2013-7-13,82.8,70.9,64.2,72.8,66.5,62.2,96,86,70,28.11,27.92,12,2,16,0.08
2013-7-14,68.7,66.2,63.8,65.8,64.0,60.0,98,93,81,28.23,28.09,15,1,15,0.73
2013-7-15,69.3,66.8,64.6,68.0,65.6,62.4,99,96,92,28.27,28.21,9,0,11,0.09
2013-7-16,86.9,75.2,63.1,73.5,66.6,61.5,98,77,51,28.22,28.10,15,2,16,0.11
2013-7-17,76.5,70.4,62.7,69.9,66.5,61.5,97,88,70,28.23,28.13,7,0,7,0.18
2013-7-18,76.2,66.3,62.4,72.5,65.3,61.2,99,97,87,28.13,27.68,13,1,18,2.56
2013-7-19,72.8,66.2,60.5,65.6,58.6,48.7,99,79,50,27.83,27.61,19,3,19,0.02
2013-7-20,65.0,55.3,45.6,50.9,46.3,42.8,93,73,53,28.03,27.83,11,1,13,0.00
2013-7-21,69.0,56.3,43.7,53.3,46.7,40.5,94,72,50,28.03,27.86,11,1,11,0.00
2013-7-22,76.0,62.0,51.9,66.3,56.0,44.3,100,81,60,27.86,27.58,20,5,21,0.05
2013-7-23,66.4,56.7,46.6,51.5,48.2,45.1,96,74,56,28.02,27.78,20,4,20,0.00
2013-7-24,71.5,57.8,43.4,59.3,51.2,42.6,99,81,47,28.04,27.92,13,1,14,0.07
2013-7-25,68.2,59.0,53.9,61.9,57.2,53.1,98,94,78,27.93,27.88,10,1,11,0.36
2013-7-26,55.7,48.1,43.6,55.2,46.8,41.1,98,95,89,28.05,27.88,19,3,19,0.68
2013-7-27,50.9,46.8,43.7,50.0,45.9,42.7,98,97,95,27.98,27.83,16,3,19,0.32
2013-7-28,63.4,53.4,46.2,54.5,48.9,45.7,100,86,58,28.02,27.90,20,3,20,0.11
2013-7-29,74.8,60.0,41.7,57.0,50.7,40.9,99,74,43,28.09,28.01,8,0,10,0.00
2013-7-30,67.0,64.2,59.1,61.5,57.7,55.3,96,80,70,28.09,28.00,9,0,10,0.06
2013-7-31,69.9,63.1,53.9,60.2,54.6,48.6,98,76,49,28.01,27.89,22,3,22,0.00
2013-8-1,68.6,59.0,51.7,57.6,53.4,49.5,96,83,59,27.91,27.84,23,2,23,0.01
2013-8-2,67.5,58.1,49.1,54.7,51.3,48.6,98,80,55,28.00,27.82,16,2,18,0.01
2013-8-3,63.7,55.7,46.3,53.3,50.0,45.1,97,82,63,28.19,28.00,14,2,14,0.00
2013-8-4,69.5,55.7,39.6,55.5,47.1,38.8,98,75,47,28.21,28.03,8,1,8,0.00
2013-8-5,66.5,58.6,53.3,59.9,55.1,45.8,97,89,75,28.03,27.80,6,0,6,0.08
2013-8-6,69.3,59.9,55.6,60.9,56.9,54.5,99,91,66,27.80,27.75,10,1,11,0.10
2013-8-7,65.5,57.8,49.3,55.8,50.0,43.9,97,77,53,27.98,27.76,12,2,14,0.00
2013-8-8,64.1,54.2,40.9,51.8,47.0,40.1,98,78,54,28.00,27.93,16,2,17,0.00
2013-8-9,65.0,54.4,46.1,53.7,49.3,44.8,96,84,58,28.08,27.89,16,2,16,0.02
2013-8-10,70.3,55.9,42.2,55.6,48.5,41.4,98,79,48,28.14,28.06,9,1,9,0.00
2013-8-11,69.9,58.1,46.4,59.1,53.0,45.3,98,85,58,28.07,28.00,10,0,13,0.01
2013-8-12,62.7,54.9,46.6,56.3,49.2,44.9,98,83,55,28.08,27.95,13,1,14,0.01
2013-8-13,60.7,52.6,42.2,49.0,46.5,40.8,97,81,55,28.18,28.08,9,1,10,0.00
2013-8-14,67.7,52.7,37.1,52.8,44.7,36.3,98,78,47,28.18,28.06,10,1,11,0.00
2013-8-15,75.0,58.7,41.9,58.0,49.8,41.1,98,76,44,28.09,28.04,9,1,9,0.00
2013-8-16,78.8,62.8,44.5,59.8,52.9,43.6,100,74,40,28.13,28.09,12,1,12,0.00
2013-8-17,77.4,67.1,57.2,60.5,57.5,53.5,88,73,52,28.14,28.03,18,2,18,0.00
2013-8-18,77.3,68.6,62.7,63.6,59.2,56.1,83,72,56,28.06,27.95,14,2,17,0.00
2013-8-19,82.7,71.0,64.0,68.4,63.4,56.6,92,78,56,27.95,27.88,12,2,14,0.00
2013-8-20,86.3,75.9,66.8,74.1,69.6,65.3,96,82,57,27.90,27.81,14,2,18,0.00
2013-8-21,79.1,71.2,51.9,70.0,60.1,48.3,94,71,40,28.04,27.78,21,3,21,0.03
2013-8-22,74.6,61.8,49.2,54.4,50.9,48.1,97,71,41,28.16,28.03,10,1,10,0.00
2013-8-23,75.5,62.6,46.9,55.9,51.5,45.9,97,70,45,28.18,28.07,13,1,13,0.00
2013-8-24,78.4,69.0,59.0,69.1,62.2,51.0,87,79,71,28.11,27.89,18,3,19,0.00
2013-8-25,87.8,77.7,65.9,76.6,71.0,64.2,96,81,61,27.98,27.87,14,2,15,0.03
2013-8-26,88.4,75.2,61.2,70.5,66.1,60.3,99,76,46,28.02,27.94,8,0,8,0.00
2013-8-27,88.0,76.4,63.7,72.2,66.7,57.3,98,73,53,27.99,27.90,6,0,6,0.00
2013-8-28,88.7,72.4,57.7,70.9,64.2,55.6,98,77,51,28.06,27.99,9,1,10,0.00
2013-8-29,81.0,67.9,59.0,69.3,64.2,58.2,99,89,60,28.06,27.81,15,1,18,0.85
2013-8-30,70.7,65.5,61.2,64.6,62.4,59.6,98,90,75,28.01,27.83,14,2,14,0.03
2013-8-31,79.8,66.0,59.5,70.7,62.5,58.4,98,89,71,27.95,27.73,16,2,16,0.39
2013-9-1,64.1,57.0,47.6,61.2,55.3,46.1,98,94,86,27.97,27.68,16,3,17,0.18
2013-9-2,59.9,49.5,42.9,51.9,45.8,41.8,96,88,71,28.06,27.97,16,2,16,0.01
2013-9-3,73.2,58.1,39.6,61.6,50.9,38.7,98,79,52,28.02,27.87,17,2,17,0.01
2013-9-4,65.7,54.8,42.9,60.9,43.7,37.8,95,68,42,28.18,27.93,12,2,13,0.00
2013-9-5,73.8,55.8,37.5,57.0,47.1,36.7,100,76,46,28.27,28.08,12,1,13,0.00
2013-9-6,80.8,68.3,59.1,68.9,61.8,50.4,97,80,62,28.08,27.88,11,1,11,0.00
2013-9-7,73.5,64.0,47.6,64.4,58.2,46.5,98,83,51,28.14,27.89,11,1,11,0.00
2013-9-8,65.2,54.7,44.4,53.5,48.6,43.5,98,81,59,28.17,27.93,13,1,13,0.00
2013-9-9,62.2,58.5,53.3,61.9,57.5,49.9,99,97,85,27.94,27.70,9,0,9,1.17
2013-9-10,68.5,62.1,56.0,63.2,60.5,55.4,99,95,81,27.91,27.72,13,1,16,0.06
2013-9-11,67.9,58.9,51.4,60.7,55.1,50.4,99,88,58,28.02,27.88,18,2,18,0.15
2013-9-12,53.1,48.9,41.6,52.3,44.6,39.1,97,85,72,28.20,28.01,15,3,15,0.00
2013-9-13,63.2,48.8,35.1,50.9,43.5,34.1,98,83,55,28.22,28.01,9,1,10,0.01
2013-9-14,71.8,58.6,48.4,56.9,51.6,44.5,97,78,56,28.03,27.84,13,2,14,0.12
2013-9-15,56.2,47.6,41.6,55.4,44.0,37.4,97,88,56,28.20,27.90,14,3,14,0.41
2013-9-16,61.7,52.7,44.5,48.8,42.4,35.6,94,70,44,28.36,28.22,12,2,13,0.01
2013-9-17,61.9,52.2,44.3,51.0,46.6,41.7,100,82,60,28.22,27.96,15,2,17,0.01
2013-9-18,65.7,56.9,50.4,60.5,55.0,47.1,97,93,83,27.95,27.80,13,1,13,0.00
2013-9-19,64.0,61.4,60.1,63.4,60.9,59.5,99,98,97,27.81,27.66,13,1,15,1.38
2013-9-20,61.2,51.4,41.9,60.9,49.9,40.3,100,95,86,27.80,27.66,15,3,15,0.05
2013-9-21,49.2,40.2,30.3,40.1,36.2,29.3,96,86,65,27.97,27.80,16,3,16,0.03
2013-9-22,52.7,42.0,29.6,43.3,37.8,28.6,97,86,66,28.03,27.94,16,2,16,0.01
2013-9-23,62.6,52.9,44.6,52.5,48.1,43.0,95,84,67,27.98,27.93,18,4,18,0.00
2013-9-24,68.2,55.9,48.2,56.4,50.3,46.9,97,83,57,27.99,27.95,13,2,13,0.01
2013-9-25,69.9,55.1,40.7,55.7,49.0,39.7,98,82,53,28.00,27.95,9,0,9,0.00
2013-9-26,66.3,54.9,45.8,54.6,50.4,44.3,98,85,64,28.02,27.95,15,2,16,0.00
2013-9-27,70.3,63.4,58.0,60.0,56.4,52.3,87,78,68,27.98,27.84,21,5,22,0.01
2013-9-28,64.4,57.8,44.6,60.0,52.6,42.9,97,83,69,27.86,27.53,19,5,22,0.45
2013-9-29,66.7,52.8,40.5,49.4,44.3,39.2,96,75,42,27.86,27.75,21,2,21,0.00
2013-9-30,65.2,58.3,53.2,53.3,50.2,46.7,82,75,63,27.80,27.60,19,3,19,0.00
2013-10-1,66.8,59.3,51.5,53.8,44.3,34.1,84,60,33,27.82,27.54,22,4,23,0.00
2013-10-2,63.6,53.2,45.4,46.4,40.3,36.8,92,64,39,28.03,27.82,17,2,17,0.01
2013-10-3,59.9,50.2,42.0,48.0,45.0,40.9,97,83,58,28.06,27.97,13,1,15,0.05
2013-10-4,52.9,48.5,45.0,46.7,44.1,38.6,96,85,67,28.16,28.06,15,1,15,0.04
2013-10-5,44.9,40.9,38.5,41.0,39.3,37.3,97,94,79,28.14,27.82,20,4,20,0.43
2013-10-6,45.8,42.7,41.0,44.5,41.6,40.2,97,96,91,27.84,27.67,16,3,17,0.67
2013-10-7,53.4,41.9,31.6,41.3,37.8,30.6,97,86,57,27.92,27.69,19,2,19,0.01
2013-10-8,63.6,52.0,31.6,48.0,42.5,30.6,97,72,55,27.92,27.76,21,4,21,0.00
2013-10-9,72.0,59.5,49.5,54.5,49.3,45.9,94,70,51,28.03,27.84,17,2,17,0.00
2013-10-10,68.0,58.2,51.8,52.4,48.2,44.4,90,71,50,28.04,27.97,15,2,15,0.00
2013-10-11,65.0,57.6,50.6,54.7,50.0,45.2,86,76,68,27.99,27.74,20,4,21,0.00
2013-10-12,57.8,52.9,44.2,53.7,47.1,42.2,95,81,62,27.92,27.66,20,5,22,0.02
2013-10-13,50.8,41.7,30.5,42.6,35.3,29.0,95,80,52,28.33,27.92,20,3,20,0.00
2013-10-14,50.1,39.8,27.2,40.4,34.3,26.2,97,82,58,28.34,28.17,7,0,8,0.18
2013-10-15,40.8,39.6,37.9,39.8,38.6,36.6,96,96,94,28.17,27.83,16,3,18,0.36
2013-10-16,48.9,38.7,29.7,37.0,33.7,28.5,100,84,54,27.83,27.78,13,2,15,0.00
2013-10-17,44.0,38.8,31.6,41.8,37.0,30.6,100,93,84,27.77,27.74,10,1,12,0.31
2013-10-18,44.1,37.1,31.1,36.2,32.6,27.8,95,85,56,27.82,27.73,12,2,12,0.02
2013-10-19,40.2,32.2,27.8,35.4,30.2,26.6,96,92,77,27.73,27.61,6,0,6,0.14
2013-10-20,39.9,33.1,27.8,36.0,30.9,26.8,97,92,70,27.69,27.65,8,0,9,0.01
2013-10-21,32.2,29.2,27.1,31.2,27.7,24.7,96,94,89,27.74,27.59,18,5,18,0.12
2013-10-22,31.0,28.2,25.9,28.3,25.1,22.9,100,88,76,27.89,27.74,16,4,16,0.00
2013-10-23,29.7,28.3,25.1,27.6,24.4,21.9,93,85,77,27.90,27.80,21,4,21,0.00
2013-10-24,35.7,31.2,28.9,29.4,27.2,24.5,95,85,68,28.10,27.89,11,3,15,0.03
2013-10-25,38.4,33.5,29.3,36.3,29.7,25.8,94,86,71,28.10,27.54,20,4,20,0.03
2013-10-26,37.4,33.0,30.6,34.6,27.7,23.6,94,81,65,27.92,27.55,24,5,24,0.01
2013-10-27,34.4,30.8,23.1,30.7,26.5,16.2,93,84,71,28.20,27.69,21,4,22,0.00
2013-10-28,31.8,23.0,14.9,18.6,16.0,12.2,90,75,49,28.41,28.19,15,2,16,0.00
2013-10-29,35.9,23.7,10.7,25.2,18.3,7.8,94,81,59,28.36,28.06,11,1,12,0.00
2013-10-30,38.8,32.2,21.9,37.8,30.1,19.7,97,92,81,28.06,27.63,12,1,13,0.03
2013-10-31,41.0,39.0,36.0,40.5,38.3,35.3,98,97,97,27.65,27.30,11,1,13,0.00
2013-11-1,35.9,34.5,32.1,35.4,32.7,29.2,98,93,88,27.74,27.29,14,3,14,0.00
2013-11-2,36.5,33.1,31.4,31.0,29.6,28.2,95,87,73,28.02,27.74,8,1,10,0.00
2013-11-3,39.7,34.7,29.6,34.2,31.9,28.5,97,90,78,28.08,27.96,21,4,22,0.00
2013-11-4,39.1,37.1,32.3,38.1,35.4,30.0,96,93,86,27.96,27.75,19,5,21,0.24
2013-11-5,35.3,31.0,28.1,30.0,26.0,23.9,91,82,68,28.04,27.92,17,3,17,0.00
2013-11-6,28.8,26.6,25.4,24.6,22.8,21.2,89,86,82,27.95,27.86,16,4,16,0.00
2013-11-7,29.0,27.7,26.5,24.9,22.8,20.6,90,82,71,28.03,27.95,15,3,15,0.00
2013-11-8,36.2,28.8,19.0,30.4,24.0,16.5,96,83,58,28.03,27.63,15,2,17,0.07
2013-11-9,32.0,31.3,29.8,31.2,30.4,28.8,97,96,96,27.91,27.52,16,4,20,0.11
2013-11-10,30.7,27.6,14.9,28.7,25.6,11.5,96,92,84,28.06,27.90,19,5,23,0.04
2013-11-11,14.8,12.5,9.1,11.9,9.0,5.3,89,85,82,28.44,27.98,21,6,25,0.00
2013-11-12,23.5,15.9,7.4,13.9,9.8,4.4,89,77,62,28.46,28.13,17,4,17,0.00
2013-11-13,43.3,32.2,18.8,32.2,25.5,11.3,84,76,63,28.13,27.59,23,5,23,0.00
2013-11-14,36.3,32.1,29.7,31.6,28.5,26.7,89,86,82,27.70,27.66,11,2,11,0.00
2013-11-15,43.1,35.3,30.3,35.9,31.8,27.3,96,87,65,27.70,27.61,13,3,14,0.01
2013-11-16,41.0,38.4,36.5,38.9,36.4,34.2,97,92,88,27.61,27.28,17,3,21,0.01
2013-11-17,40.1,34.6,24.9,39.6,33.8,23.4,98,97,94,27.43,27.20,20,3,24,0.07
2013-11-18,24.8,18.7,15.0,23.2,16.1,11.8,100,89,85,28.09,27.43,22,7,26,0.00
2013-11-19,33.5,21.8,13.0,27.0,18.8,10.8,93,88,73,28.15,27.80,23,4,26,0.00
2013-11-20,39.0,35.6,33.4,31.1,28.4,25.7,91,76,59,27.94,27.78,22,3,22,0.00
2013-11-21,33.4,23.8,13.3,31.1,20.5,9.4,94,87,82,28.32,27.94,19,4,19,0.00
2013-11-22,20.8,11.9,2.0,11.3,6.6,-3.2,90,79,53,28.35,28.17,22,5,25,0.00
2013-11-23,6.3,1.4,-2.8,-2.1,-4.4,-7.4,85,76,63,28.52,28.35,19,6,20,0.00
2013-11-24,26.5,11.5,-2.4,18.7,5.9,-6.1,86,78,62,28.41,27.57,24,4,29,0.00
2013-11-25,31.3,26.7,13.9,27.1,21.9,5.8,92,82,69,27.78,27.52,24,6,24,0.00
2013-11-26,13.9,7.3,2.8,7.2,2.4,-3.0,86,80,71,28.16,27.78,20,7,21,0.00
2013-11-27,15.2,11.1,7.2,9.8,7.6,4.4,89,85,76,28.17,27.98,14,2,16,0.00
2013-11-28,16.5,11.8,5.4,12.7,8.8,2.1,89,88,84,28.31,27.97,9,1,9,0.06
2013-11-29,21.5,10.5,-9.5,19.5,7.5,-13.7,92,87,81,28.34,28.00,11,2,14,0.00
2013-11-30,24.6,23.0,21.5,22.2,20.9,19.5,94,92,88,28.04,27.90,12,2,12,0.02
2013-12-1,23.4,21.3,20.3,21.3,19.4,18.4,93,92,91,28.04,27.83,7,0,7,0.06
2013-12-2,27.6,23.3,19.8,26.4,21.7,18.1,95,93,91,27.83,27.71,16,2,16,0.09
2013-12-3,27.3,19.1,10.7,26.1,17.0,8.0,95,92,89,27.91,27.74,24,4,24,0.04
2013-12-4,16.5,14.2,10.5,14.6,12.0,7.8,92,91,89,27.90,27.29,20,5,22,0.13
2013-12-5,13.2,7.7,2.5,11.1,4.8,-0.8,96,88,85,27.87,27.27,23,6,23,0.03
2013-12-6,2.5,-3.9,-10.6,-0.6,-7.6,-14.9,87,84,82,28.22,27.87,18,4,18,0.00
2013-12-7,-1.2,-11.8,-19.3,-5.3,-15.8,-23.8,83,81,79,28.29,28.21,12,2,12,0.00
2013-12-8,9.0,-6.3,-23.3,6.4,-10.1,-28.2,89,83,76,28.22,27.80,9,1,12,0.02
2013-12-9,9.5,-3.3,-11.5,6.8,-7.0,-15.4,92,84,80,27.80,27.58,20,3,20,0.01
2013-12-10,-4.9,-11.4,-22.4,-8.2,-15.6,-27.1,94,81,77,27.91,27.61,16,3,16,0.00
2013-12-11,-6.5,-12.7,-18.4,-11.4,-16.9,-23.0,92,81,78,28.12,27.89,15,4,17,0.00
2013-12-12,-1.1,-7.9,-15.6,-5.8,-12.1,-19.7,84,82,79,28.00,27.89,19,4,19,0.00
2013-12-13,-7.9,-15.6,-23.5,-14.5,-20.4,-28.4,92,78,71,28.21,28.00,10,2,10,0.00
2013-12-14,9.3,-1.7,-19.9,5.9,-5.3,-24.4,92,84,79,28.20,27.76,10,2,11,0.03
2013-12-15,-1.4,-13.8,-28.3,-5.0,-18.0,-33.5,85,81,75,27.92,27.77,13,3,13,0.00
2013-12-16,12.4,1.4,-28.7,10.0,-1.7,-33.9,90,86,75,27.91,27.58,14,2,14,0.02
2013-12-17,14.4,7.2,-2.4,12.3,4.4,-6.0,91,88,85,27.82,27.56,16,4,18,0.00
2013-12-18,15.2,4.9,-13.7,14.0,2.1,-17.8,100,88,81,27.81,27.54,12,1,14,0.01
2013-12-19,13.7,1.4,-4.8,11.1,-2.3,-8.4,92,84,79,28.02,27.61,16,3,17,0.00
2013-12-20,14.5,3.8,-17.3,11.0,0.3,-22.2,92,85,78,27.96,27.72,14,1,14,0.01
2013-12-21,13.6,9.3,0.1,10.5,6.2,-3.5,89,87,85,27.95,27.72,10,1,11,0.00
2013-12-22,-0.1,-4.2,-11.2,-3.5,-8.0,-15.2,95,83,81,28.07,27.91,10,3,10,0.01
2013-12-23,-3.4,-14.2,-26.0,-8.4,-18.8,-31.4,82,79,75,28.25,28.07,10,1,10,0.00
2013-12-24,12.1,3.9,-26.4,8.2,0.5,-31.5,89,85,75,28.20,27.88,16,3,16,0.00
2013-12-25,10.9,5.4,-2.2,6.5,2.0,-5.7,87,85,80,27.88,27.78,13,3,14,0.00
2013-12-26,7.3,-7.1,-19.0,1.6,-11.4,-23.8,92,81,76,27.97,27.84,9,1,9,0.00
2013-12-27,27.5,18.3,-4.6,25.9,16.4,-8.2,95,92,84,27.95,27.60,18,4,19,0.00
2013-12-28,26.7,15.1,-5.0,25.5,13.1,-8.6,95,91,84,27.94,27.72,16,2,16,0.00
2013-12-29,-4.9,-15.7,-21.2,-8.2,-20.0,-26.1,92,80,78,28.04,27.93,14,3,15,0.00
2013-12-30,-9.7,-22.7,-33.3,-13.8,-27.3,-38.6,82,78,74,27.97,27.88,8,1,8,0.00
2013-12-31,-14.6,-23.7,-34.5,-18.2,-28.5,-39.8,92,78,74,28.16,27.86,12,2,16,0.00
2014-1-1,-11.8,-23.9,-35.4,-16.2,-28.7,-41.0,80,77,73,28.26,28.15,7,0,8,0.00
2014-1-2,-8.4,-26.4,-37.5,-12.9,-31.4,-43.2,81,76,72,28.23,28.04,7,0,7,0.00